Regional Weather Roundup
Issued by NWS Newport/Morehead, NC

Current Version | Previous Version | Text Only | Print | Product List | Glossary Off
Versions: 1 2 3 4 5 6 7 8 9 10 11 12 13 14 15 16 17 18 19 20 21 22 23 24 25 26 27 28 29 30 31 32 33 34 35 36 37 38 39 40 41 42 43 44 45 46 47 48 49 50
000 ASUS42 KMHX 251425 RWRMHX WEATHER ROUNDUP FOR EASTERN NORTH CAROLINA NATIONAL WEATHER SERVICE NEWPORT/MOREHEAD CITY NC 900 AM EST SAT FEB 25 2017 NOTE: "FAIR" INDICATES FEW OR NO CLOUDS BELOW 12,000 FEET WITH NO SIGNIFICANT WEATHER AND/OR OBSTRUCTIONS TO VISIBILITY NCZ015>017-031-032-045>047-102-103-251500- NORTH COAST CITY SKY/WX TMP DP RH WIND PRES REMARKS EDENTON SUNNY 64 64 100 CALM 29.79F ELIZABETH CITY SUNNY 64 60 87 S5 29.78F KITTY HAWK NOT AVBL MANTEO SUNNY 62 58 89 CALM 29.79F $$ NCZ045>047-081-094-103-104-251500- CENTRAL COAST CITY SKY/WX TMP DP RH WIND PRES REMARKS FRISCO SUNNY 70 61 73 NW3 29.80S $$ NCZ095-097-098-100-101-251500- SOUTHERN COAST CITY SKY/WX TMP DP RH WIND PRES REMARKS BEAUFORT SUNNY 66 63 90 CALM 29.81S CEDAR ISLAND NOT AVBL JACKSONVILLE SUNNY 62 62 100 SW3 29.80F PINEY ISLAND SUNNY N/A N/A N/A CALM 29.80S WILMINGTON SUNNY 65 63 93 S5 29.81S $$ NCZ011>013-027>030-043-044-078>080-089-090>093-098-251500- COASTAL PLAIN CITY SKY/WX TMP DP RH WIND PRES REMARKS AHOSKIE N/A 61 59 96 S7 29.76F CLINTON SUNNY 64 62 93 SW8 29.79F ELIZABETHTOWN SUNNY 65 61 87 SW7 29.80S GOLDSBORO SUNNY 61 61 100 SE5 29.76F GREENVILLE SUNNY 63 63 100 S9 29.80F HAVELOCK NOT AVBL KENANSVILLE SUNNY 64 61 88 CALM 29.79F KINSTON SUNNY 63 63 100 S6 29.80F NEW BERN SUNNY 64 62 93 SW5 29.81F RICHLANDS SUNNY 63 60 90 S5 29.81S ROCKY MOUNT SUNNY 61 61 100 S10 29.76F WASHINGTON SUNNY 62 59 90 SW5 29.79F WHITEVILLE SUNNY 63 60 90 S8 29.80S $$ AMZ130-135-150-152-154-156-158-170-250-252-270-ANZ085-086-088-633-658-670-251500- MARINE OBSERVATIONS STATION/POSITION TIME TEMP WIND PRES WAVE SWELL AIR SEA DIR/SP/G HT/PER HT/PER (UTC) (F) (DEG/KT/KT) (MB) (FT/S) (FT/S) CHESAPEAKE LIGHT NOT AVBL 64 E VA BEACH 1350 58 54 60/ 2/ 4 1008.2 6/11 7/11 DUCK 1400 61 49 190/ 3/ 4 1008.0 2 E DUCK 1400 51 N/A 5/11 3/11 OREGON INLET 1400 65 58 50/ 1/ 2 1008.7 13E OREGON INLT NOT AVBL HATTERAS CG 1400 62 63 280/ 3/ 3 1008.8 DIAMOND BUOY 1350 71 76 320/ 4/ 8 1008.9 7/11 7/11 CAPE LOOKOUT 1400 68 280/ 2/ 3 1009.0 BEAUFORT LAB 1400 65 63 360/ 2/ 3 1008.4 30 SE NEW RVR IN 1408 67 270/ 4/ 6 1009.7 30 SE NEW RVR IN 1413 69 N/A 6/11 3/11 27 SE WRIGHTSVLE 1408 64 65 240/ 4/ 8 1009.3 5 SE WRIGHTSVLE 1408 60 58 160/ 4/ 6 1009.4 225 S CAPE HAT 1350 70 70 350/ 8/ 10 1009.1 9/10 8/10 41 SE CHARLESTON 1350 70 70 240/ 14/ 16 1010.0 7/10 7/10 $$

USA.gov is the U.S. government's official web portal to all federal, state and local government web resources and services.